Lid_Strength_Index
2 2 2 3 2 2 2 2 2 2 2 2 2 2 1 1 2 4 8 5 3 -1 -1 2 3 3 6 8 8 9 14 15 14 13 12 10 10 8 7 8 7 7 6 5 5
2 2 3 3 3 2 2 2 2 2 2 2 2 2 1 1 4 6 2 -0 -1 -2 3 4 5 5 8 8 9 11 15 14 10 11 11 10 10 9 9 9 9 8 6 5 5
3 3 3 3 3 2 2 2 2 2 1 2 2 2 1 2 5 7 -1 -1 -1 -1 3 3 4 5 8 9 9 11 13 10 9 8 9 10 10 8 9 11 9 9 7 6 6
3 3 3 3 3 3 2 2 2 2 2 2 2 2 2 3 10 5 -2 -2 -2 -0 3 3 6 8 10 10 9 11 9 9 8 8 10 10 9 9 9 8 7 7 7 7 7
2 3 3 3 3 2 2 2 2 2 2 2 2 2 2 5 5 2 -3 -2 0 2 3 6 8 8 10 9 9 10 9 8 7 8 9 8 9 9 8 6 5 6 6 6 6
2 2 2 2 2 2 2 2 2 2 2 2 2 1 3 7 3 1 -0 2 1 4 5 6 8 7 9 9 10 8 8 8 8 8 9 9 8 8 7 6 6 6 6 5 5
2 2 2 2 2 2 2 2 3 2 2 2 1 2 4 6 4 2 1 5 4 3 5 5 5 7 8 10 8 8 10 9 8 8 8 7 9 9 6 5 6 5 5 4 4
3 3 3 2 2 2 2 2 2 2 2 2 2 3 6 2 5 5 4 5 4 4 5 5 5 7 9 8 9 10 10 13 8 7 7 8 12 8 6 6 6 6 5 5 5
3 3 3 3 3 3 3 3 2 2 2 2 3 4 6 3 5 4 5 5 5 4 5 3 6 8 7 10 11 11 14 12 10 8 8 9 11 7 6 7 7 7 6 6 5
3 3 3 3 3 3 3 3 2 3 2 2 2 6 5 6 5 4 4 4 6 6 6 6 8 10 10 11 15 14 13 12 12 8 8 10 10 7 6 6 7 7 6 5 5
3 4 3 3 3 3 4 5 6 6 6 6 5 5 5 4 4 5 4 5 5 7 10 8 11 12 10 9 10 11 12 11 9 8 9 10 9 8 7 7 7 6 6 5 5
4 4 4 4 4 4 6 6 6 6 9 5 5 5 4 4 7 5 5 7 8 10 8 9 11 8 7 7 9 10 11 11 9 7 8 9 9 8 7 7 7 7 6 6 5
4 4 4 4 4 5 6 4 4 5 9 7 4 6 7 6 6 5 6 7 9 9 9 11 9 6 7 8 9 10 11 11 11 9 8 9 11 10 8 7 6 6 6 6 6
4 4 4 5 5 5 5 4 4 3 11 7 7 7 6 6 6 4 4 6 8 9 8 9 7 8 8 9 8 12 8 8 9 11 15 10 16 11 10 9 8 7 7 6 5
5 5 5 5 6 5 4 3 3 4 19 7 7 4 5 7 7 6 4 5 9 8 8 9 8 8 9 8 8 10 7 9 9 11 13 13 16 13 10 11 9 8 7 6 6
5 5 5 4 4 4 2 4 4 12 18 8 6 7 8 6 6 5 5 5 5 8 7 8 6 7 8 7 7 7 9 10 11 12 19 14 15 15 14 11 10 8 7 6 6
5 5 6 4 5 3 4 5 12 17 7 9 9 8 8 8 7 6 7 9 10 12 12 9 9 8 7 9 8 9 12 19 19 19 18 12 15 15 11 9 9 8 7 6 5
6 6 4 3 3 3 4 8 16 10 10 7 8 9 8 7 8 7 8 10 8 9 12 13 14 10 8 9 11 10 12 18 23 22 19 13 18 15 8 8 7 7 6 6 6
6 4 3 1 2 3 7 13 12 9 8 8 8 9 9 7 8 8 9 10 9 9 13 13 12 8 7 7 8 11 15 11 17 16 19 16 14 11 9 9 8 8 7 7 6
7 5 3 2 2 4 8 11 9 6 6 7 10 9 11 9 10 10 10 8 8 7 8 10 14 8 7 7 8 10 9 16 16 22 23 17 16 17 12 11 9 9 8 7 6
6 6 3 3 2 6 11 10 7 6 5 7 9 9 9 10 9 10 10 8 6 7 8 9 12 11 9 10 11 12 13 12 14 16 21 21 18 12 11 10 10 9 8 7 7
6 8 4 3 8 7 10 7 8 6 4 5 6 8 9 9 10 10 10 8 6 7 10 9 12 14 12 8 7 8 11 12 17 18 17 18 17 9 9 8 9 8 7 6 6
8 6 3 2 11 9 7 6 5 6 6 6 7 7 7 9 12 9 9 6 6 7 9 9 12 17 15 11 9 10 10 10 12 13 17 19 17 8 8 8 8 8 7 7 7
7 9 5 5 5 8 9 8 8 5 5 5 7 7 8 10 9 10 9 7 6 7 5 6 12 14 18 14 11 12 11 10 12 17 17 17 15 11 10 10 9 8 7 7 7
6 8 7 11 8 8 7 8 8 8 6 6 7 8 9 12 11 11 9 8 7 6 8 9 14 12 11 10 10 10 11 12 14 13 16 14 14 11 10 9 9 7 7 7 7
7 8 7 8 7 7 8 8 8 7 7 8 9 7 8 11 10 12 10 11 10 8 9 9 14 12 13 10 10 12 11 11 11 12 12 12 13 9 8 7 8 8 7 8 8
5 5 7 8 7 8 8 7 7 7 6 6 7 8 9 8 7 7 7 7 8 9 10 11 12 13 16 11 12 15 12 12 10 11 12 15 12 9 9 8 9 8 7 7 8